TimeEST,TemperatureF,Dew PointF,Humidity,Sea Level PressureIn,VisibilityMPH,Wind Direction,Wind SpeedMPH,Gust SpeedMPH,PrecipitationIn,Events,Conditions,WindDirDegrees,DateUTC
12:15 AM,33.8,32.9,96,29.44,3.0,North,9.2,-,0.01,Snow,Light Snow,350,2013-01-30 05:15:00
12:34 AM,33.8,32.9,96,29.42,5.0,North,9.2,-,0.02,Snow,Light Snow,350,2013-01-30 05:34:00
12:54 AM,33.8,32.9,96,29.43,7.0,North,10.4,17.3,0.02,Snow,Light Snow,350,2013-01-30 05:54:00
1:15 AM,33.6,32.7,96,29.42,7.0,NNW,11.5,16.1,N/A,Snow,Light Snow,340,2013-01-30 06:15:00
1:34 AM,33.4,32.5,96,29.42,7.0,NNW,10.4,17.3,N/A,Snow,Light Snow,340,2013-01-30 06:34:00
1:54 AM,33.3,32.4,96,29.42,7.0,North,11.5,17.3,N/A,,Overcast,350,2013-01-30 06:54:00
2:15 AM,33.1,32.2,96,29.42,7.0,North,9.2,-,N/A,,Overcast,350,2013-01-30 07:15:00
2:34 AM,33.1,32.2,96,29.42,7.0,North,8.1,-,N/A,,Overcast,350,2013-01-30 07:34:00
2:54 AM,33.1,32.2,96,29.40,5.0,North,8.1,-,N/A,Snow,Light Snow,350,2013-01-30 07:54:00
3:15 AM,32.9,32.0,96,29.39,4.0,North,9.2,16.1,N/A,Snow,Light Snow,350,2013-01-30 08:15:00
3:34 AM,32.9,32.0,96,29.37,5.0,North,8.1,-,N/A,,Overcast,350,2013-01-30 08:34:00
3:54 AM,32.9,32.0,96,29.38,10.0,North,6.9,-,N/A,,Overcast,350,2013-01-30 08:54:00
4:15 AM,32.9,32.0,96,29.38,10.0,NNW,9.2,-,N/A,,Overcast,340,2013-01-30 09:15:00
4:34 AM,32.9,32.0,96,29.37,10.0,North,8.1,-,N/A,,Overcast,350,2013-01-30 09:34:00
4:54 AM,33.1,32.0,96,29.36,5.0,North,8.1,-,N/A,Snow,Light Snow,350,2013-01-30 09:54:00
5:15 AM,33.1,32.0,96,29.37,7.0,North,6.9,-,N/A,,Overcast,350,2013-01-30 10:15:00
5:34 AM,33.1,32.0,96,29.36,7.0,North,4.6,-,N/A,,Overcast,10,2013-01-30 10:34:00
5:54 AM,32.9,32.0,96,29.35,7.0,North,6.9,-,N/A,,Overcast,350,2013-01-30 10:54:00
6:14 AM,32.9,32.0,96,29.36,10.0,NNW,6.9,-,N/A,,Overcast,340,2013-01-30 11:14:00
6:34 AM,33.1,32.0,96,29.36,7.0,NNW,8.1,-,N/A,,Overcast,330,2013-01-30 11:34:00
6:55 AM,33.1,32.2,96,29.35,7.0,NW,5.8,-,N/A,Snow,Light Snow,320,2013-01-30 11:55:00
7:14 AM,32.9,32.0,96,29.35,7.0,NNW,6.9,-,N/A,Snow,Light Snow,340,2013-01-30 12:14:00
7:34 AM,32.4,32.0,99,29.30,3.0,North,10.4,-,N/A,Snow,Light Snow,360,2013-01-30 12:34:00
7:55 AM,32.9,32.0,96,29.32,7.0,NNW,9.2,-,N/A,,Overcast,340,2013-01-30 12:55:00
8:14 AM,32.9,32.0,96,29.35,10.0,NNW,6.9,-,N/A,,Overcast,330,2013-01-30 13:14:00
8:34 AM,33.1,32.2,96,29.33,10.0,NNW,9.2,-,N/A,Snow,Light Snow,340,2013-01-30 13:34:00
8:55 AM,32.9,32.0,96,29.33,3.0,NNW,11.5,16.1,N/A,Snow,Light Snow,340,2013-01-30 13:55:00
9:14 AM,32.4,32.0,99,29.33,2.5,North,9.2,16.1,N/A,Snow,Light Snow,350,2013-01-30 14:14:00
9:34 AM,32.4,32.0,99,29.32,4.0,NNW,10.4,16.1,N/A,,Overcast,340,2013-01-30 14:34:00
9:55 AM,32.5,32.0,98,29.30,4.0,North,10.4,20.7,N/A,,Overcast,360,2013-01-30 14:55:00
10:14 AM,32.4,32.0,99,29.31,10.0,North,9.2,-,N/A,,Overcast,360,2013-01-30 15:14:00
10:34 AM,32.5,32.0,98,29.31,7.0,North,8.1,-,N/A,Snow,Light Snow,360,2013-01-30 15:34:00
10:54 AM,32.4,31.8,98,29.30,2.0,North,9.2,16.1,N/A,Snow,Light Snow,360,2013-01-30 15:54:00
11:14 AM,32.2,31.6,98,29.30,1.2,North,9.2,-,N/A,Snow,Light Snow,360,2013-01-30 16:14:00
11:34 AM,32.2,31.8,99,29.30,0.8,North,8.1,-,0.01,Snow,Light Snow,360,2013-01-30 16:34:00
11:55 AM,32.0,31.6,99,29.29,0.8,North,9.2,-,0.01,Snow,Light Snow,360,2013-01-30 16:55:00
12:19 PM,32.2,31.8,99,29.28,0.5,North,8.1,-,N/A,Snow,Light Snow,360,2013-01-30 17:19:00
12:34 PM,32.2,31.8,99,29.26,0.5,North,8.1,-,N/A,Snow,Light Snow,360,2013-01-30 17:34:00
12:54 PM,32.2,31.8,99,29.25,0.5,North,9.2,-,0.01,Snow,Light Snow,10,2013-01-30 17:54:00
1:14 PM,32.0,31.8,99,29.23,0.5,North,9.2,-,N/A,Snow,Light Snow,10,2013-01-30 18:14:00
1:34 PM,32.2,31.8,99,29.20,0.5,NNE,13.8,19.6,N/A,Snow,Light Snow,20,2013-01-30 18:34:00
1:54 PM,32.0,31.5,98,29.18,2.5,NE,11.5,-,N/A,Snow,Light Snow,40,2013-01-30 18:54:00
2:14 PM,32.0,31.5,98,29.18,1.0,NNE,8.1,-,N/A,Snow,Light Snow,30,2013-01-30 19:14:00
2:35 PM,32.0,31.1,96,29.15,0.5,NE,12.7,18.4,0.03,Snow,Light Snow,40,2013-01-30 19:35:00
2:54 PM,31.8,30.9,96,29.16,0.8,NE,13.8,19.6,0.04,Snow,Light Snow,40,2013-01-30 19:54:00
3:14 PM,31.5,30.7,97,29.14,0.8,NNE,13.8,-,0.02,Snow,Light Snow,30,2013-01-30 20:14:00
3:35 PM,31.1,30.6,98,29.15,0.8,NE,11.5,-,0.03,Snow,Light Snow,40,2013-01-30 20:35:00
3:54 PM,30.9,30.0,96,29.15,0.8,NNE,12.7,18.4,0.04,Snow,Light Snow,30,2013-01-30 20:54:00
4:14 PM,30.0,29.3,97,29.14,0.5,NNE,13.8,20.7,N/A,Snow,Light Snow,30,2013-01-30 21:14:00
4:35 PM,29.7,28.8,96,29.14,0.8,NNE,12.7,19.6,0.01,Snow,Light Snow,20,2013-01-30 21:35:00
4:54 PM,29.3,28.4,96,29.15,0.8,North,10.4,-,0.02,Snow,Light Snow,10,2013-01-30 21:54:00
5:14 PM,28.6,27.7,96,29.15,0.5,NNE,11.5,19.6,0.01,Snow,Snow,20,2013-01-30 22:14:00
5:34 PM,28.0,27.1,96,29.12,0.2,NNE,15.0,20.7,0.04,Snow,Snow,20,2013-01-30 22:34:00
5:54 PM,27.5,26.4,96,29.13,0.8,NNE,16.1,20.7,0.05,Snow,Light Snow,20,2013-01-30 22:54:00
6:15 PM,26.6,25.5,96,29.11,1.8,NNE,18.4,26.5,N/A,Snow,Light Snow,20,2013-01-30 23:15:00
6:34 PM,26.2,24.8,94,29.12,1.8,North,17.3,24.2,N/A,Snow,Light Snow,10,2013-01-30 23:34:00
6:54 PM,25.5,23.7,93,29.11,3.0,NNE,21.9,27.6,N/A,Snow,Light Snow,20,2013-01-30 23:54:00
7:15 PM,24.8,22.8,92,29.11,2.0,NNE,19.6,26.5,N/A,Snow,Light Snow,30,2013-01-31 00:15:00
7:34 PM,24.4,22.6,93,29.10,1.8,NNE,19.6,24.2,N/A,Snow,Light Snow,30,2013-01-31 00:34:00
7:54 PM,23.7,22.1,94,29.11,1.8,North,16.1,21.9,N/A,Snow,Light Snow,10,2013-01-31 00:54:00
8:15 PM,23.0,21.0,92,29.12,3.0,North,12.7,21.9,N/A,,Overcast,360,2013-01-31 01:15:00
8:34 PM,22.1,19.8,91,29.12,7.0,North,13.8,21.9,N/A,,Overcast,360,2013-01-31 01:34:00
8:54 PM,21.2,18.7,90,29.11,7.0,North,15.0,25.3,N/A,,Overcast,10,2013-01-31 01:54:00
9:15 PM,21.2,19.2,92,29.09,7.0,North,15.0,25.3,N/A,,Overcast,360,2013-01-31 02:15:00
9:34 PM,19.6,16.9,89,29.12,7.0,North,16.1,24.2,N/A,,Overcast,360,2013-01-31 02:34:00
9:54 PM,19.4,16.7,89,29.13,10.0,North,10.4,23.0,N/A,,Overcast,360,2013-01-31 02:54:00
10:15 PM,19.6,16.7,89,29.14,10.0,North,12.7,20.7,N/A,,Overcast,350,2013-01-31 03:15:00
10:34 PM,19.0,16.2,89,29.12,7.0,NNW,12.7,20.7,N/A,Snow,Light Snow,340,2013-01-31 03:34:00
10:54 PM,17.8,14.7,88,29.12,4.0,NNW,16.1,24.2,N/A,Snow,Light Snow,330,2013-01-31 03:54:00
11:15 PM,17.1,14.0,88,29.12,5.0,North,13.8,24.2,N/A,Snow,Light Snow,350,2013-01-31 04:15:00
11:34 PM,16.7,13.6,88,29.13,3.0,NNW,17.3,26.5,N/A,Snow,Light Snow,340,2013-01-31 04:34:00
11:54 PM,15.3,11.7,86,29.14,5.0,North,16.1,26.5,N/A,Snow,Light Snow,350,2013-01-31 04:54:00